Location: Champseau
(45.8333°N, 1.7667°E)
Time: 07:10:24
(UTC+00:00)

Envisat - Pass Details

Date: 28 September 2021
Orbit: 764 x 766 km, 98.2° (Epoch: 23 October)

Event Time Altitude Azimuth Distance (km) Brightness Sun altitude
Rises 03:46:03 0° 30° (NNE) 3,241 7.0 -21.6°
Reaches altitude 10° 03:49:17 10° 51° (NE) 2,309 6.5 -21.1°
Maximum altitude 03:52:22 16° 89° (E) 1,913 6.0 -20.6°
Drops below altitude 10° 03:55:28 10° 127° (SE) 2,297 5.9 -20.0°
Sets 03:58:39 0° 148° (SSE) 3,217 6.4 -19.5°
